SCP
0 0 0 0 -0 -0 0 -0 0 -0 -0 -0 -0 1 3 3 3 3 2 3 2 1 2 2 2 1 1 1 0 1 1 0 0 0 0 0 0 0 0 0 0 0 0
0 0 0 0 0 -0 -0 -0 -0 -0 -0 -0 -0 2 3 3 3 2 1 2 2 3 2 2 1 1 1 1 1 1 1 1 0 0 0 -0 -0 0 0 0 0 0 0
0 0 0 0 0 0 0 0 0 0 0 1 2 2 2 2 2 1 1 2 3 3 0 0 1 1 1 1 0 0 1 0 0 0 0 0 0 0 0 0 0 0 0
0 0 0 0 0 0 0 1 1 1 1 2 1 3 3 3 3 2 2 2 1 0 0 0 0 0 1 1 0 0 0 1 1 0 0 0 0 0 0 0 0 0 0
0 0 0 1 1 1 0 0 0 0 0 0 0 0 1 2 0 0 0 1 0 0 0 0 0 0 1 1 0 0 0 0 1 0 0 0 0 0 0 0 0 0 0
0 0 0 0 0 0 0 0 0 0 0 0 0 0 0 0 0 0 0 0 0 0 0 0 0 0 1 1 1 0 0 1 1 0 0 0 0 0 0 0 0 0 0
0 0 0 0 0 0 0 0 0 0 0 0 0 0 0 0 0 0 0 0 0 0 0 0 0 0 0 0 0 0 0 0 0 0 0 0 0 0 0 0 0 0 0
0 0 0 0 0 0 0 0 0 0 0 0 0 0 0 0 0 0 0 0 0 0 0 0 0 0 0 0 0 0 0 0 0 0 0 0 0 0 0 0 0 0 0
0 0 0 0 0 0 0 0 0 0 0 0 0 0 0 0 0 0 0 0 0 0 0 0 0 0 0 0 0 0 0 0 0 0 0 0 0 0 0 0 0 0 0
0 0 0 0 0 0 0 0 0 0 0 0 0 0 0 0 0 0 0 0 0 0 0 0 0 0 0 0 0 0 0 0 0 0 0 0 0 0 0 0 0 0 0
0 0 0 0 0 0 0 0 0 0 0 0 0 0 0 0 0 0 0 0 0 0 0 0 0 0 0 0 0 0 0 0 0 0 0 0 0 0 0 0 0 0 0
0 0 0 0 0 0 0 0 0 0 0 0 0 0 0 0 0 0 -0 -0 0 0 0 0 0 0 0 0 0 0 0 0 0 0 0 0 0 0 0 0 0 0 0
0 0 0 0 0 0 0 0 0 0 0 0 0 0 0 0 0 -0 -0 0 0 0 0 0 0 0 0 0 0 0 0 0 0 0 0 0 0 0 0 0 0 0 0
0 0 0 0 0 0 0 0 0 0 0 0 0 0 0 0 0 -0 -0 0 0 0 0 0 0 0 0 0 0 0 0 0 0 0 0 0 0 0 0 0 0 0 0
0 0 0 0 0 0 0 0 0 0 0 0 0 0 0 0 0 0 0 0 0 0 0 0 0 0 0 0 0 0 0 0 0 0 0 0 0 0 0 0 0 0 0
0 0 0 0 0 0 0 0 0 0 0 0 0 0 0 0 0 0 0 0 0 0 0 0 0 -0 -0 0 0 0 0 0 0 0 0 0 0 0 0 0 0 0 0
0 0 0 0 0 0 0 0 0 0 0 0 0 0 0 0 0 0 0 0 0 0 -0 -0 -0 -0 -0 0 0 0 0 0 0 0 0 0 0 0 0 0 0 0 0
0 0 0 0 0 0 0 0 0 0 0 0 0 0 0 0 0 0 0 0 0 -0 -0 0 0 0 0 0 0 0 0 0 0 0 0 0 0 0 0 0 0 0 0
0 0 0 0 0 0 0 0 0 0 0 0 0 0 0 0 0 0 0 0 0 0 0 0 0 0 0 0 0 0 0 0 0 0 0 0 0 0 0 0 0 0 0
0 0 0 0 0 0 0 0 0 0 0 0 0 0 0 0 0 0 0 0 0 0 0 0 0 0 0 0 0 0 0 0 0 0 0 0 0 0 0 0 0 0 0
0 0 0 0 0 0 0 0 0 0 0 0 0 0 0 0 0 0 0 0 0 0 0 0 0 0 0 0 0 0 0 0 0 0 0 0 0 0 0 0 0 0 0
0 0 0 0 0 0 0 0 0 0 0 0 -0 -0 -0 0 0 0 0 0 0 0 0 0 0 0 0 0 0 0 0 0 0 0 0 0 0 0 0 0 0 0 0
0 0 0 -0 -0 -0 -0 -0 0 0 -0 -0 -0 0 0 0 0 0 0 0 0 0 0 0 0 0 0 0 0 0 0 0 0 0 0 0 0 0 0 0 0 0 0
-0 -0 -0 -0 -0 -0 0 0 0 0 0 0 0 0 0 0 0 0 0 0 0 0 0 0 0 0 0 0 0 0 0 0 0 0 0 0 0 0 0 0 0 0 0
-0 -0 -0 -0 0 0 0 0 0 0 0 0 0 0 0 0 0 0 0 0 0 0 0 0 0 0 0 0 0 0 0 0 0 0 0 0 0 0 0 0 0 0 0
0 0 0 0 0 0 0 0 0 0 0 0 0 0 0 0 0 0 0 0 0 0 0 0 0 0 0 0 0 0 0 0 0 0 0 0 0 0 0 0 0 0 0
Wind_Speed_500mb
4 35 36 33 30 22 29 44 65 67 67 46 57 67 63 67 66 62 59 59 54 50 48 49 50 50 47 53 58 51 49 51 51 47 48 56 51 43 39 37 31 26 20
21 44 47 43 34 29 23 27 31 33 49 65 63 56 55 52 44 33 30 36 53 50 54 49 51 47 52 47 54 58 56 60 46 42 43 52 53 46 38 37 34 29 28
42 39 38 40 46 45 36 28 23 26 27 39 54 56 57 54 47 39 41 44 53 47 53 48 50 51 46 50 53 59 53 63 53 48 39 31 39 27 31 39 36 37 38
32 45 41 39 37 38 35 29 23 29 34 35 45 38 43 44 32 40 41 42 35 44 56 51 55 55 51 51 55 63 58 60 68 52 50 46 60 40 33 39 35 32 34
29 48 38 38 31 21 9 4 2 9 9 13 20 31 27 25 28 38 43 34 28 31 35 47 55 61 63 50 49 60 52 63 71 58 48 45 53 52 41 45 46 33 31
47 48 44 40 31 21 15 11 11 8 4 8 10 15 20 24 28 31 32 26 32 34 33 37 42 50 55 57 52 48 51 58 67 61 52 60 49 64 42 38 46 54 54
60 59 48 34 26 16 16 17 15 11 6 6 6 7 8 10 15 19 18 17 14 15 23 36 40 41 42 45 49 45 47 53 59 59 58 58 54 58 48 49 49 47 46
66 51 37 29 19 10 12 11 10 12 12 12 11 11 12 15 18 20 19 16 11 11 12 13 12 13 22 24 26 24 27 29 36 40 43 49 45 60 44 51 52 52 50
60 46 36 23 19 16 11 5 5 7 7 11 14 16 18 21 25 28 30 29 28 27 25 23 20 19 22 27 27 30 33 39 43 50 54 56 55 55 55 54 55 57 62
59 49 36 27 27 21 17 11 5 4 7 13 21 23 25 31 36 37 37 41 41 42 42 41 39 36 33 35 39 45 46 49 55 58 58 66 58 61 60 59 61 65 71
59 50 40 35 27 23 19 16 9 3 1 6 13 26 38 48 52 52 54 56 58 57 54 52 52 50 48 48 48 49 52 53 55 57 60 61 61 64 68 69 70 71 70
55 52 44 35 33 28 27 20 17 14 14 12 14 23 32 40 45 57 60 59 61 59 57 57 58 57 55 55 56 57 55 55 59 64 66 65 62 61 62 64 70 76 80
41 47 36 35 38 37 31 27 27 20 15 14 22 31 38 42 48 54 57 63 61 60 57 53 50 51 52 53 55 58 59 59 61 64 66 66 64 65 63 62 67 73 74
42 48 45 45 48 34 28 24 14 12 19 24 30 35 39 48 54 58 62 68 70 67 66 60 56 56 57 57 60 62 63 64 65 64 66 69 70 71 72 68 65 61 59
23 38 36 36 30 24 17 15 18 17 18 23 32 40 47 56 62 66 75 74 71 72 70 70 72 73 73 77 78 78 79 81 82 82 83 84 84 84 83 79 80 79 77
28 33 33 26 20 12 7 6 11 17 26 36 44 52 58 58 66 70 73 76 78 78 79 84 87 91 94 92 93 94 96 95 96 99 100 98 95 95 95 92 92 92 90
39 30 22 15 11 12 17 25 31 34 38 42 41 44 51 56 60 65 70 76 81 83 89 94 101 105 107 100 93 87 87 89 93 96 98 101 103 104 105 103 98 96 97
30 22 15 16 16 18 23 24 21 24 33 39 42 45 49 54 59 65 71 78 85 92 100 104 106 99 87 76 65 61 66 69 70 69 69 68 68 64 63 63 65 66 64
22 19 15 15 18 22 18 18 20 23 30 37 42 46 52 59 67 75 82 89 98 103 105 94 85 69 63 57 56 56 60 63 63 61 59 58 52 49 51 55 55 61 65
19 13 11 9 11 13 19 26 31 34 39 43 49 54 61 69 77 86 93 100 98 91 79 68 60 55 55 51 54 56 57 60 58 55 54 55 51 50 45 44 43 48 58
17 15 17 21 22 25 30 35 38 43 49 56 62 68 75 83 89 93 90 83 74 67 59 56 50 51 56 56 57 49 48 49 51 54 56 57 53 46 45 44 47 51 48
19 23 27 31 37 43 47 51 56 62 68 75 80 83 84 83 79 74 69 61 53 50 49 53 53 53 51 56 58 51 43 43 49 56 58 56 51 51 50 52 50 48 50
27 32 38 43 48 54 61 66 69 72 74 77 76 72 68 63 57 54 48 44 40 44 48 49 50 58 59 62 61 54 46 43 51 57 54 52 53 50 51 51 50 48 53
42 48 53 56 59 60 60 59 61 64 64 64 59 54 52 48 42 37 35 37 40 42 45 50 52 55 57 56 51 51 54 59 62 61 58 55 53 56 59 57 52 47 45
44 47 50 52 54 57 60 64 59 56 54 51 46 44 42 40 37 33 34 38 35 36 46 45 46 52 57 52 47 51 61 62 60 56 56 56 56 55 52 48 41 32 35
40 43 44 49 55 57 55 50 47 46 45 44 42 40 39 37 38 40 36 29 37 38 42 44 44 50 47 47 49 53 51 53 49 45 45 46 46 44 40 30 18 25 28
Wind_Direction_500mb
207 128 129 131 140 170 208 206 211 213 216 245 233 225 230 236 241 246 247 246 248 252 257 259 253 260 268 263 251 252 254 257 259 259 262 281 273 272 257 255 262 266 268
167 140 133 130 137 134 143 189 205 218 231 242 238 239 244 242 245 257 260 249 245 250 258 263 255 264 273 259 253 248 248 263 257 265 270 280 281 267 247 249 240 250 269
243 171 150 144 138 142 147 160 180 210 229 228 230 240 246 246 254 262 263 264 256 252 250 251 254 257 283 262 258 246 258 269 257 265 257 273 271 270 247 233 252 266 271
244 175 157 142 141 137 148 159 184 204 219 228 228 227 230 237 238 242 250 259 267 255 253 252 254 267 271 268 252 248 267 256 257 255 267 265 269 275 279 268 258 252 266
212 164 160 145 133 142 140 70 297 241 248 252 228 226 234 240 253 256 261 263 267 271 270 260 255 269 267 261 254 256 256 257 256 250 256 263 276 265 259 272 271 261 262
159 156 146 135 125 109 80 63 49 51 337 268 266 261 264 271 283 278 273 274 270 271 265 266 269 261 261 259 257 259 256 243 256 262 261 260 253 264 258 263 269 276 281
153 141 141 137 127 97 56 70 81 92 60 28 29 32 24 15 20 32 33 31 13 350 282 264 267 270 279 282 276 264 257 255 252 251 255 256 257 269 269 272 272 274 279
155 150 147 135 111 84 86 95 84 83 83 70 62 53 53 43 39 28 22 22 15 359 8 7 338 279 270 265 270 279 291 267 267 261 260 263 261 258 274 277 281 283 283
156 153 148 140 128 116 109 124 107 99 61 29 15 6 6 358 357 353 348 348 340 331 321 314 296 287 277 265 263 266 265 268 275 276 276 273 275 278 279 276 279 280 278
155 156 154 145 142 144 160 175 144 63 20 344 331 331 334 338 336 333 336 335 331 328 322 318 311 301 291 279 270 266 266 268 266 269 273 275 279 277 275 275 274 274 275
158 160 160 156 155 160 168 162 156 159 209 315 321 324 328 332 330 327 325 323 323 323 319 317 312 309 304 301 292 280 277 277 274 271 271 271 270 270 272 272 273 272 271
163 165 159 159 168 173 175 175 191 210 215 242 285 303 313 318 318 322 318 317 319 319 318 318 317 313 310 307 303 300 295 290 284 278 277 280 279 276 273 273 272 272 271
146 157 162 172 176 181 177 176 176 182 204 256 279 292 302 306 311 320 318 315 314 312 311 311 309 308 308 306 304 301 299 294 291 288 284 282 281 280 279 277 275 272 271
140 155 162 172 177 175 169 175 199 244 267 273 284 290 296 307 315 316 317 314 310 310 311 310 309 309 308 305 302 299 295 292 291 289 289 290 286 282 279 277 274 272 273
153 153 139 147 156 167 180 220 245 254 277 296 306 312 314 313 313 311 313 314 312 308 306 305 303 302 302 301 299 296 294 291 289 286 284 283 281 279 279 279 278 278 277
110 108 118 128 136 153 192 269 298 310 316 316 314 312 310 306 307 308 309 310 310 305 304 304 304 304 301 299 296 294 291 289 287 286 284 281 278 277 276 275 276 278 279
97 96 86 74 46 9 342 324 319 316 315 315 311 302 300 301 302 303 304 304 304 304 304 303 303 302 301 300 298 297 294 292 288 287 286 286 283 281 278 279 278 275 274
83 73 44 5 343 332 323 316 300 297 298 299 296 294 295 298 299 301 301 302 303 305 305 305 303 302 302 303 302 301 299 297 296 294 293 292 292 288 282 279 277 275 272
37 23 359 350 333 322 318 298 290 293 294 294 298 299 300 301 301 301 302 304 306 306 306 305 307 309 309 310 306 305 304 301 300 299 297 296 294 290 288 289 287 285 279
55 34 18 346 321 331 315 304 301 301 300 300 301 301 301 302 303 304 306 306 307 307 308 309 310 312 313 311 309 307 305 301 300 299 295 294 291 288 290 288 280 284 289
49 12 344 341 337 326 319 315 312 307 302 300 300 302 302 304 304 305 306 306 307 308 312 313 314 313 312 307 306 315 313 310 309 306 304 299 297 294 292 291 284 280 292
6 357 345 336 328 321 317 316 313 308 306 306 306 306 307 307 307 307 307 310 313 317 323 319 319 318 322 321 316 317 310 307 306 306 304 299 294 291 289 286 280 280 285
349 337 332 328 323 321 318 316 314 310 309 308 307 307 307 309 312 312 314 317 323 323 321 323 325 325 321 316 318 321 313 302 303 302 302 296 294 291 287 286 285 283 284
340 332 326 322 322 320 320 319 315 312 313 312 313 314 315 319 321 320 323 327 329 329 326 325 325 325 325 328 329 324 320 313 307 302 299 294 288 285 285 285 285 286 283
333 330 330 330 329 328 326 324 322 319 318 319 321 323 324 325 325 329 333 327 332 330 331 331 328 328 324 328 326 322 318 315 305 298 291 288 287 291 294 292 285 280 292
341 341 344 338 331 328 328 329 328 326 326 326 330 329 329 334 333 329 323 324 329 328 330 335 335 328 322 327 323 321 322 325 317 303 296 293 293 294 299 295 276 306 298
Wind_Speed_850mb
4 35 36 33 30 22 29 44 65 67 67 46 57 67 63 67 66 62 59 59 54 50 48 49 50 50 47 53 58 51 49 51 51 47 48 56 51 43 39 37 31 26 20
21 44 47 43 34 29 23 27 31 33 49 65 63 56 55 52 44 33 30 36 53 50 54 49 51 47 52 47 54 58 56 60 46 42 43 52 53 46 38 37 34 29 28
42 39 38 40 46 45 36 28 23 26 27 39 54 56 57 54 47 39 41 44 53 47 53 48 50 51 46 50 53 59 53 63 53 48 39 31 39 27 31 39 36 37 38
32 45 41 39 37 38 35 29 23 29 34 35 45 38 43 44 32 40 41 42 35 44 56 51 55 55 51 51 55 63 58 60 68 52 50 46 60 40 33 39 35 32 34
29 48 38 38 31 21 9 4 2 9 9 13 20 31 27 25 28 38 43 34 28 31 35 47 55 61 63 50 49 60 52 63 71 58 48 45 53 52 41 45 46 33 31
47 48 44 40 31 21 15 11 11 8 4 8 10 15 20 24 28 31 32 26 32 34 33 37 42 50 55 57 52 48 51 58 67 61 52 60 49 64 42 38 46 54 54
60 59 48 34 26 16 16 17 15 11 6 6 6 7 8 10 15 19 18 17 14 15 23 36 40 41 42 45 49 45 47 53 59 59 58 58 54 58 48 49 49 47 46
66 51 37 29 19 10 12 11 10 12 12 12 11 11 12 15 18 20 19 16 11 11 12 13 12 13 22 24 26 24 27 29 36 40 43 49 45 60 44 51 52 52 50
60 46 36 23 19 16 11 5 5 7 7 11 14 16 18 21 25 28 30 29 28 27 25 23 20 19 22 27 27 30 33 39 43 50 54 56 55 55 55 54 55 57 62
59 49 36 27 27 21 17 11 5 4 7 13 21 23 25 31 36 37 37 41 41 42 42 41 39 36 33 35 39 45 46 49 55 58 58 66 58 61 60 59 61 65 71
59 50 40 35 27 23 19 16 9 3 1 6 13 26 38 48 52 52 54 56 58 57 54 52 52 50 48 48 48 49 52 53 55 57 60 61 61 64 68 69 70 71 70
55 52 44 35 33 28 27 20 17 14 14 12 14 23 32 40 45 57 60 59 61 59 57 57 58 57 55 55 56 57 55 55 59 64 66 65 62 61 62 64 70 76 80
41 47 36 35 38 37 31 27 27 20 15 14 22 31 38 42 48 54 57 63 61 60 57 53 50 51 52 53 55 58 59 59 61 64 66 66 64 65 63 62 67 73 74
42 48 45 45 48 34 28 24 14 12 19 24 30 35 39 48 54 58 62 68 70 67 66 60 56 56 57 57 60 62 63 64 65 64 66 69 70 71 72 68 65 61 59
23 38 36 36 30 24 17 15 18 17 18 23 32 40 47 56 62 66 75 74 71 72 70 70 72 73 73 77 78 78 79 81 82 82 83 84 84 84 83 79 80 79 77
28 33 33 26 20 12 7 6 11 17 26 36 44 52 58 58 66 70 73 76 78 78 79 84 87 91 94 92 93 94 96 95 96 99 100 98 95 95 95 92 92 92 90
39 30 22 15 11 12 17 25 31 34 38 42 41 44 51 56 60 65 70 76 81 83 89 94 101 105 107 100 93 87 87 89 93 96 98 101 103 104 105 103 98 96 97
30 22 15 16 16 18 23 24 21 24 33 39 42 45 49 54 59 65 71 78 85 92 100 104 106 99 87 76 65 61 66 69 70 69 69 68 68 64 63 63 65 66 64
22 19 15 15 18 22 18 18 20 23 30 37 42 46 52 59 67 75 82 89 98 103 105 94 85 69 63 57 56 56 60 63 63 61 59 58 52 49 51 55 55 61 65
19 13 11 9 11 13 19 26 31 34 39 43 49 54 61 69 77 86 93 100 98 91 79 68 60 55 55 51 54 56 57 60 58 55 54 55 51 50 45 44 43 48 58
17 15 17 21 22 25 30 35 38 43 49 56 62 68 75 83 89 93 90 83 74 67 59 56 50 51 56 56 57 49 48 49 51 54 56 57 53 46 45 44 47 51 48
19 23 27 31 37 43 47 51 56 62 68 75 80 83 84 83 79 74 69 61 53 50 49 53 53 53 51 56 58 51 43 43 49 56 58 56 51 51 50 52 50 48 50
27 32 38 43 48 54 61 66 69 72 74 77 76 72 68 63 57 54 48 44 40 44 48 49 50 58 59 62 61 54 46 43 51 57 54 52 53 50 51 51 50 48 53
42 48 53 56 59 60 60 59 61 64 64 64 59 54 52 48 42 37 35 37 40 42 45 50 52 55 57 56 51 51 54 59 62 61 58 55 53 56 59 57 52 47 45
44 47 50 52 54 57 60 64 59 56 54 51 46 44 42 40 37 33 34 38 35 36 46 45 46 52 57 52 47 51 61 62 60 56 56 56 56 55 52 48 41 32 35
40 43 44 49 55 57 55 50 47 46 45 44 42 40 39 37 38 40 36 29 37 38 42 44 44 50 47 47 49 53 51 53 49 45 45 46 46 44 40 30 18 25 28
Wind_Direction_850mb
207 128 129 131 140 170 208 206 211 213 216 245 233 225 230 236 241 246 247 246 248 252 257 259 253 260 268 263 251 252 254 257 259 259 262 281 273 272 257 255 262 266 268
167 140 133 130 137 134 143 189 205 218 231 242 238 239 244 242 245 257 260 249 245 250 258 263 255 264 273 259 253 248 248 263 257 265 270 280 281 267 247 249 240 250 269
243 171 150 144 138 142 147 160 180 210 229 228 230 240 246 246 254 262 263 264 256 252 250 251 254 257 283 262 258 246 258 269 257 265 257 273 271 270 247 233 252 266 271
244 175 157 142 141 137 148 159 184 204 219 228 228 227 230 237 238 242 250 259 267 255 253 252 254 267 271 268 252 248 267 256 257 255 267 265 269 275 279 268 258 252 266
212 164 160 145 133 142 140 70 297 241 248 252 228 226 234 240 253 256 261 263 267 271 270 260 255 269 267 261 254 256 256 257 256 250 256 263 276 265 259 272 271 261 262
159 156 146 135 125 109 80 63 49 51 337 268 266 261 264 271 283 278 273 274 270 271 265 266 269 261 261 259 257 259 256 243 256 262 261 260 253 264 258 263 269 276 281
153 141 141 137 127 97 56 70 81 92 60 28 29 32 24 15 20 32 33 31 13 350 282 264 267 270 279 282 276 264 257 255 252 251 255 256 257 269 269 272 272 274 279
155 150 147 135 111 84 86 95 84 83 83 70 62 53 53 43 39 28 22 22 15 359 8 7 338 279 270 265 270 279 291 267 267 261 260 263 261 258 274 277 281 283 283
156 153 148 140 128 116 109 124 107 99 61 29 15 6 6 358 357 353 348 348 340 331 321 314 296 287 277 265 263 266 265 268 275 276 276 273 275 278 279 276 279 280 278
155 156 154 145 142 144 160 175 144 63 20 344 331 331 334 338 336 333 336 335 331 328 322 318 311 301 291 279 270 266 266 268 266 269 273 275 279 277 275 275 274 274 275
158 160 160 156 155 160 168 162 156 159 209 315 321 324 328 332 330 327 325 323 323 323 319 317 312 309 304 301 292 280 277 277 274 271 271 271 270 270 272 272 273 272 271
163 165 159 159 168 173 175 175 191 210 215 242 285 303 313 318 318 322 318 317 319 319 318 318 317 313 310 307 303 300 295 290 284 278 277 280 279 276 273 273 272 272 271
146 157 162 172 176 181 177 176 176 182 204 256 279 292 302 306 311 320 318 315 314 312 311 311 309 308 308 306 304 301 299 294 291 288 284 282 281 280 279 277 275 272 271
140 155 162 172 177 175 169 175 199 244 267 273 284 290 296 307 315 316 317 314 310 310 311 310 309 309 308 305 302 299 295 292 291 289 289 290 286 282 279 277 274 272 273
153 153 139 147 156 167 180 220 245 254 277 296 306 312 314 313 313 311 313 314 312 308 306 305 303 302 302 301 299 296 294 291 289 286 284 283 281 279 279 279 278 278 277
110 108 118 128 136 153 192 269 298 310 316 316 314 312 310 306 307 308 309 310 310 305 304 304 304 304 301 299 296 294 291 289 287 286 284 281 278 277 276 275 276 278 279
97 96 86 74 46 9 342 324 319 316 315 315 311 302 300 301 302 303 304 304 304 304 304 303 303 302 301 300 298 297 294 292 288 287 286 286 283 281 278 279 278 275 274
83 73 44 5 343 332 323 316 300 297 298 299 296 294 295 298 299 301 301 302 303 305 305 305 303 302 302 303 302 301 299 297 296 294 293 292 292 288 282 279 277 275 272
37 23 359 350 333 322 318 298 290 293 294 294 298 299 300 301 301 301 302 304 306 306 306 305 307 309 309 310 306 305 304 301 300 299 297 296 294 290 288 289 287 285 279
55 34 18 346 321 331 315 304 301 301 300 300 301 301 301 302 303 304 306 306 307 307 308 309 310 312 313 311 309 307 305 301 300 299 295 294 291 288 290 288 280 284 289
49 12 344 341 337 326 319 315 312 307 302 300 300 302 302 304 304 305 306 306 307 308 312 313 314 313 312 307 306 315 313 310 309 306 304 299 297 294 292 291 284 280 292
6 357 345 336 328 321 317 316 313 308 306 306 306 306 307 307 307 307 307 310 313 317 323 319 319 318 322 321 316 317 310 307 306 306 304 299 294 291 289 286 280 280 285
349 337 332 328 323 321 318 316 314 310 309 308 307 307 307 309 312 312 314 317 323 323 321 323 325 325 321 316 318 321 313 302 303 302 302 296 294 291 287 286 285 283 284
340 332 326 322 322 320 320 319 315 312 313 312 313 314 315 319 321 320 323 327 329 329 326 325 325 325 325 328 329 324 320 313 307 302 299 294 288 285 285 285 285 286 283
333 330 330 330 329 328 326 324 322 319 318 319 321 323 324 325 325 329 333 327 332 330 331 331 328 328 324 328 326 322 318 315 305 298 291 288 287 291 294 292 285 280 292
341 341 344 338 331 328 328 329 328 326 326 326 330 329 329 334 333 329 323 324 329 328 330 335 335 328 322 327 323 321 322 325 317 303 296 293 293 294 299 295 276 306 298